This is the latest recevied weather packets stored in our database for station/object KQ4UWH. If no packets are shown the sender has not sent any weather packets the latest 1 day(s).
| Time | Temp. | Humidity | Pressure | Rain* | Wind** | Luminosity | Snow |
|---|---|---|---|---|---|---|---|
| 1778018460 | 27.22° C | 33% | 1239.7 hPa | 0 mm | 1.79 m/s, 182° | 296 W/m² | - |
| 1778018158 | 26.67° C | 35% | 1239.7 hPa | 0 mm | 0 m/s | 314 W/m² | - |
| 1778017855 | 26.67° C | 34% | 1239.7 hPa | 0 mm | 1.34 m/s, 202° | 319 W/m² | - |
| 1778017553 | 26.67° C | 33% | 1239.7 hPa | 0 mm | 0.89 m/s, 111° | 312 W/m² | - |
| 1778017250 | 26.67° C | 35% | 1239.7 hPa | 0 mm | 1.34 m/s, 177° | 340 W/m² | - |
| 1778016948 | 27.78° C | 32% | 1239.7 hPa | 0 mm | 1.34 m/s, 190° | 367 W/m² | - |
| 1778016643 | 27.78° C | 32% | 1239.7 hPa | 0 mm | 1.34 m/s, 162° | 389 W/m² | - |
| 1778016340 | 27.22° C | 32% | 1239.7 hPa | 0 mm | 0 m/s | 407 W/m² | - |
| 1778016038 | 27.22° C | 32% | 1239.7 hPa | 0 mm | 0.45 m/s, 155° | 419 W/m² | - |
| 1778015735 | 27.22° C | 32% | 1239.7 hPa | 0 mm | 0 m/s | 418 W/m² | - |
| 1778015431 | 27.78° C | 32% | 1239.7 hPa | 0 mm | 0.89 m/s, 166° | 448 W/m² | - |
| 1778015128 | 27.78° C | 34% | 1239.7 hPa | 0 mm | 0.89 m/s, 113° | 461 W/m² | - |
| 1778014820 | 27.78° C | 33% | 1239.7 hPa | 0 mm | 0.89 m/s, 193° | 475 W/m² | - |
| 1778014518 | 27.78° C | 32% | 1239.7 hPa | 0 mm | 0.89 m/s, 137° | 495 W/m² | - |
| 1778014215 | 27.22° C | 34% | 1239.7 hPa | 0 mm | 0.89 m/s, 128° | 505 W/m² | - |
| 1778013913 | 27.22° C | 34% | 1239.7 hPa | 0 mm | 0.89 m/s, 168° | 518 W/m² | - |
| 1778013609 | 27.78° C | 32% | 1239.7 hPa | 0 mm | 0 m/s | 533 W/m² | - |
| 1778013305 | 27.78° C | 32% | 1239.7 hPa | 0 mm | 0 m/s | 551 W/m² | - |
| 1778013003 | 27.78° C | 32% | 1239.7 hPa | 0 mm | 0.45 m/s, 174° | 565 W/m² | - |
| 1778012699 | 27.22° C | 33% | 1239.7 hPa | 0 mm | 0 m/s | 567 W/m² | - |
| 1778012395 | 27.22° C | 35% | 1239.7 hPa | 0 mm | 0.89 m/s, 168° | 575 W/m² | - |
| 1778012092 | 27.22° C | 33% | 1239.7 hPa | 0 mm | 1.79 m/s, 191° | 594 W/m² | - |
| 1778011790 | 27.22° C | 37% | 1239.7 hPa | 0 mm | 0.89 m/s, 130° | 603 W/m² | - |
| 1778011488 | 26.67° C | 32% | 1239.7 hPa | 0 mm | 0.45 m/s, 100° | 597 W/m² | - |
| 1778011183 | 26.67° C | 33% | 1239.7 hPa | 0 mm | 0 m/s | 617 W/m² | - |
* Rain latest hour (hover to see other rain measurements)
** Current wind speed in m/s (hover to see current wind gust speed)